Regional Weather Roundup
Issued by NWS

Home | Current Version | Previous Version | Graphics & Text | Print | Product List | Glossary Off
Versions: 1 2 3 4 5 6 7 8 9 10 11 12 13 14 15 16 17 18 19 20 21 22 23 24 25 26 27 28 29 30 31 32 33 34 35 36 37 38 39 40 41 42 43 44 45 46 47 48 49 50

493
ASUS43 KTOP 271559
RWRKS

WEATHER ROUNDUP FOR KANSAS
NATIONAL WEATHER SERVICE GOODLAND KS
1100 AM CDT FRI MAY 27 2016

NOTE:  "FAIR" INDICATES FEW OR NO CLOUDS BELOW 12,000 FEET WITH NO
SIGNIFICANT WEATHER AND/OR OBSTRUCTIONS TO VISIBILITY.

KSZ001>006-013>018-027>032-041>047-271700-
NORTHWEST KANSAS

CITY           SKY/WX    TMP DP  RH WIND       PRES   REMARKS
GOODLAND       CLOUDY    57  52  83 E8        29.74R
HAYS           CLOUDY    34 N/A N/A SE10      29.72S WCI  26
HILL CITY      CLOUDY    59  57  93 NE9       29.73S FOG
RUSSELL        CLOUDY    63  60  90 SE13      29.71S
$$

KSZ061>065-074>080-084>089-271700-
SOUTHWEST KANSAS

CITY           SKY/WX    TMP DP  RH WIND       PRES   REMARKS
DODGE CITY     PTSUNNY   61  56  83 NW8       29.70F
ELKHART          N/A     63  42  46 W23         N/A
GARDEN CITY    PTSUNNY   64  50  60 NW7       29.70S
GREAT BEND     CLOUDY    64  55  72 SE13      29.70S
LIBERAL        SUNNY     66  46  48 NW12      29.74S
$$

KSZ066>073-081>083-090>101-271700-
SOUTHEAST KANSAS

CITY           SKY/WX    TMP DP  RH WIND       PRES   REMARKS
CHANUTE        CLOUDY    70  63  78 SE10      29.72F
COFFEYVILLE    CLOUDY    72  65  78 SE14G21   29.69F
HUTCHINSON     CLOUDY    67  63  87 SE13      29.71R
MEDICINE LODGE   N/A     72  62  71 VRB7      29.68F
NEWTON         CLOUDY    68  61  77 SE15G25   29.73S
PARSONS        CLOUDY    70  64  81 MISG      29.71F
WICHITA INTL   CLOUDY    69  64  84 SE13      29.69F
WICHITA JABRA  CLOUDY    69  64  84 SE12      29.70F
WINFIELD       CLOUDY    71  65  81 E10       29.69F
$$

KSZ007>012-019>026-033>040-048>060-102>105-271700-
NORTHEAST KANSAS

CITY           SKY/WX    TMP DP  RH WIND       PRES   REMARKS
CONCORDIA      CLOUDY    63  59  87 SE6       29.76S
EMPORIA        CLOUDY    68  60  75 SE13G22   29.72F
LAWRENCE       CLOUDY    66  61  84 S3        29.75F
MANHATTAN      CLOUDY    69  59  70 SE5       29.74F
OLATHE IND     CLOUDY    68  62  81 S7        29.75F
OLATHE EXE     CLOUDY    68  61  78 S10       29.75F
SALINA         CLOUDY    69  60  73 E9        29.73R
TOPEKA BILLARD MOSUNNY   67  60  78 S7        29.74F
TOPEKA FORBES  MOSUNNY   67  61  81 SE3       29.74F
$$




USA.gov is the U.S. government's official web portal to all federal, state and local government web resources and services.